{"data":{"norad_id":59074,"intl_designator":"2024-041A","name":"STARLINK-31265","alt_names":[],"object_type":"PAYLOAD","status":"ACTIVE","operator":null,"country":"US","launch_date":"2024-02-29","launch_site_code":"AFETR","launch_vehicle":null,"mission":null,"orbit_class":"UNKNOWN","rcs_meters":null,"size_class":null,"mass_kg":null,"dimensions":null,"purposes":["comms"],"wikipedia_slug":null,"has_3d_model":false,"image_url":null,"decayed_at":null,"tle_current":{"epoch":"2026-09-20T08:37:51.504960Z","epoch_age_seconds":167687,"freshness":"FRESH","line1":"1 59074U 24041A   26263.35962390  .00003158  00000+0  12416-3 0  9995","line2":"2 59074  43.0022 291.3231 0001549 279.3172  80.7504 15.27596222144047","mean_motion":15.27596222,"eccentricity":0.0001549,"inclination_deg":43.0022,"raan_deg":291.3231,"arg_perigee_deg":279.3172,"mean_anomaly_deg":80.7504,"bstar":0.00012416,"rev_number":14404,"period_min":94.265747666925,"perigee_km":481.93773176352,"apogee_km":484.06331216783,"semimajor_km":6861.1375219657,"source":"CELESTRAK","updated_at":"2026-09-21T09:00:34.033343Z"}}}